Location: Barcelona
(41.3830°N, 2.1830°E)
Time: 21:09:43
(UTC+01:00)

ISS - Pass Details

Date: 23 March 2017
Orbit: 399 x 409 km, 51.6° (Epoch: 24 March)

Event Time Altitude Azimuth Distance (km) Brightness Sun altitude
Exits shadow 06:02:47 14° 268° (W) 1,260 -2.0 -9.6°
Maximum altitude 06:04:37 21° 227° (SW) 982 -2.4 -9.2°
Drops below altitude 10° 06:07:09 10° 176° (S) 1,464 -1.0 -8.7°
Sets 06:09:33 0° 159° (SSE) 2,320 0.2 -8.3°
